Regional Weather Roundup
Issued by NWS

Home | Current Version | Previous Version | Text Only | Print | Product List | Glossary Off
Versions: 1 2 3 4 5 6 7 8 9 10 11 12 13 14 15 16 17 18 19 20 21 22 23 24 25 26 27 28 29 30 31 32 33 34 35 36 37 38 39 40 41 42 43 44 45 46 47 48 49 50

000
ASUS43 KLOT 170712
RWRIL

ILLINOIS REGIONAL WEATHER ROUNDUP
NATIONAL WEATHER SERVICE CHICAGO/ROMEOVILLE IL
100 AM CST TUE JAN 17 2017

NOTE: "FAIR" INDICATES FEW OR NO CLOUDS BELOW 12,000 FEET WITH NO
SIGNIFICANT WEATHER AND/OR OBSTRUCTIONS TO VISIBILITY.

* THESE STATIONS ARE NOT UNDER NWS QUALITY CONTROL. THEY ALSO MAY NOT
  REPORT WEATHER SUCH AS PRECIPITATION OR FOG.

ILZ001-002-007-009-015-016-024-170800-
NORTHWEST ILLINOIS

CITY           SKY/WX    TMP DP  RH WIND       PRES   REMARKS
MOLINE         CLOUDY    36  35  96 CALM      29.80S
STERLING*      MIX PCPN  37  36  96 CALM      29.79F FOG
SAVANNA*       CLOUDY    36  35  98 N3        29.81S
$$

ILZ003-004-008-010-011-017-018-170800-
NORTH CENTRAL ILLINOIS

CITY           SKY/WX    TMP DP  RH WIND       PRES   REMARKS
ROCKFORD       LGT RAIN  37  36  96 N5        29.80F FOG     WCI  33
FREEPORT*      DRIZZLE   34  33  99 N3        29.81F
ROCHELLE*      MIX PCPN  36  36 100 NW6       29.80R WCI  32
DE KALB*       CLOUDY    37  37  99 E6        29.78R WCI  33
$$

ILZ005-006-012>014-019>023-170800-
NORTHEAST ILLINOIS

CITY           SKY/WX    TMP DP  RH WIND       PRES   REMARKS
CHICAGO-OHARE  DRIZZLE   37  37 100 NE9       29.76F FOG     WCI  30
CHICAGO-MIDWAY FOG       38  37  97 NE6       29.76F VSB 1/2 WCI  33
AURORA         TSTM      38  38 100 NE3       29.77F FOG
LANSING*       LGT RAIN  46  46 100 SE9       29.77F
JOLIET*        TSTM      44  44 100 CALM      29.74F
WAUKEGAN       FOG       37  37 100 E8        29.79F VSB 1/4 WCI  31
DUPAGE AIRPORT TSTM      38  36  92 E5        29.76F FOG     WCI  34
KANKAKEE*      CLOUDY    48  47  97 SE10      29.75F FOG
WHEELING       CLOUDY    38  37  97 NE7       29.78F FOG     WCI  33
MORRIS*        CLOUDY    39  38  98 N3        29.76R
ROMEOVILLE*    TSTM      40  40 100 NE5       29.74F VSB 3/4
NORTHERLY ISL    N/A     35  35 100 MISG        N/A
$$

LMZ740>746-170800-
SOUTHERN LAKE MICHIGAN

STATION/POSITION SKY/WX   TEMP    WIND        PRES    VSBY  WAVE
                          AIR SEA DIR/SP/G                  HT/PER
                          (F)     (DEG/KT/KT) (MB)    (MI)  (FT/S)
HARRISON CRIB              40      90/  9/  9   N/A
BURNHAM HARBOR             35     360/  4/  5   N/A
CALUMET HARBOR                     30/  3/  4 1007.6F
BURNS HARBOR               47     140/ 13/ 20 1009.5F
$$

ILZ025>027-034>036-040-047-049-050-058-095>099-170800-
WEST-CENTRAL ILLINOIS

CITY           SKY/WX    TMP DP  RH WIND       PRES   REMARKS
QUINCY         CLOUDY    45  44  97 W13       29.86R
GALESBURG*     FOG       37  37 100 CALM      29.79S VSB 3/4
MACOMB*        LGT RAIN  41  41 100 W10       29.83S
JACKSONVILLE*  CLOUDY    47  44  90 W15       29.85R
PITTSFIELD*    CLOUDY    46  44  90 W10G18    29.88R
$$

ILZ028>032-037-038-041>044-048-051>054-059>061-170800-
CENTRAL ILLINOIS

CITY           SKY/WX    TMP DP  RH WIND       PRES   REMARKS
PONTIAC        CLOUDY    49  49 100 S12       29.76S
BLOOMINGTON    RAIN      52  52 100 SW18G26   29.77S FOG
DECATUR        CLOUDY    56  56 100 S15       29.79F
PEORIA         CLOUDY    45  45 100 W8        29.79S
LACON*         RAIN      37  37 100 CALM      29.78S
LINCOLN*       DRIZZLE   53  53 100 W9G17     29.79R
SPRINGFIELD    CLOUDY    53  50  89 W17       29.83R
TAYLORVILLE    LGT RAIN  53  51  94 W17       29.83R
$$

ILZ033-039-045-046-055>057-062-063-170800-
EAST-CENTRAL ILLINOIS

CITY           SKY/WX    TMP DP  RH WIND       PRES   REMARKS
CHAMPAIGN      CLOUDY    55  53  93 S17       29.79F
RANTOUL*       DRIZZLE   53  53  99 S14       29.78F
MATTOON        CLOUDY    57  55  93 S14G23    29.81F
PARIS*         CLOUDY    56  55  98 S14       29.84F
$$

ILZ079-100>102-170800-
SOUTHWEST ILLINOIS

CITY           SKY/WX    TMP DP  RH WIND       PRES   REMARKS
ALTON          CLOUDY    49  47  91 W21G26    29.88R
BELLEVILLE     CLOUDY    55  55 100 W15       29.87R
CAHOKIA*       CLOUDY    52  44  74 W15G23    29.89R
SPARTA*        PTCLDY    58  57  96 S8        29.88R
$$

ILZ064>066-069>071-074>076-080>082-084>086-088>090-092>094-170800-
SOUTH-CENTRAL ILLINOIS

CITY           SKY/WX    TMP DP  RH WIND       PRES   REMARKS
CARBONDALE     NOT AVBL
CAIRO*         PTCLDY    61  60  97 SW10      29.92R
EFFINGHAM*     CLOUDY    59  59 100 S12G18    29.85F
MARION         CLOUDY    61  59  94 S12       29.89S
MT. VERNON     MOCLDY    57  55  94 S12       29.87S
CENTRALIA*     MOCLDY    60  58  96 S15       29.85R
SALEM*         CLOUDY    61  58  88 S13G18    29.85S
METROPOLIS*    CLOUDY    61  60  97 CALM      29.92S
$$

ILZ067-068-072-073-078-083-087-091-170800-
SOUTHEAST ILLINOIS

CITY           SKY/WX    TMP DP  RH WIND       PRES   REMARKS
LAWRENCEVILLE  CLOUDY    58  57  97 S15       29.88F
FLORA*         CLOUDY    59  57  94 SW7       29.87S
FAIRFIELD*     CLOUDY    58  58  97 S7        29.87R
HARRISBURG*    CLOUDY    60  59  95 S8        29.89F
ROBINSON*      CLOUDY    58  56  94 S15       29.88S
CARMI*         MOCLDY    57  56  99 S13       29.88F
$$

ABBREVIATIONS USED IN REMARKS
   TC - TEMPERATURE IN CELSIUS
  WCI - WIND CHILL INDEX
   HX - HEAT INDEX
  VSB - VISIBILITY
$$





USA.gov is the U.S. government's official web portal to all federal, state and local government web resources and services.